When you browse on this site, cookies collect data to enhance your experience and personalize the content and advertising you see.
Visit our Privacy Policy to learn more. By continuing to use the site, you agree to this use of cookies and data.
  • In Deutschland
  • Länderverzeichnis
  • Für 7 Tage
  • Wassertemperatur
  • Wetterkarte
  • Widgets
  • user-avatar
    Anmelden

    Stündliche Wetter Mingachevir

    Heute, 25 August, Sonntag

    Zeit Temperatur Niederschläge Wind Luftdruck Luftfeuchtigkeit
    00:00 +28°C° 0 mm 4 m/S 751 mmHg 48%
    01:00 +27°C° 0 mm 3 m/S 751 mmHg 50%
    02:00 +26°C° 0 mm 2 m/S 751 mmHg 52%
    03:00 +26°C° 0 mm 1 m/S 751 mmHg 54%
    04:00 +26°C° 0.2 mm 1 m/S 751 mmHg 55%
    05:00 +26°C° 0.2 mm 1 m/S 751 mmHg 56%
    06:00 +26°C° 0.2 mm 1 m/S 751 mmHg 58%
    07:00 +28°C° 0 mm 1 m/S 751 mmHg 50%
    08:00 +31°C° 0 mm 1 m/S 752 mmHg 42%
    09:00 +33°C° 0 mm 1 m/S 752 mmHg 35%
    10:00 +36°C° 0 mm 2 m/S 751 mmHg 30%
    11:00 +37°C° 0 mm 3 m/S 751 mmHg 24%
    12:00 +39°C° 0 mm 3 m/S 750 mmHg 19%
    13:00 +40°C° 0 mm 3 m/S 750 mmHg 18%
    14:00 +40°C° 0 mm 3 m/S 750 mmHg 17%
    15:00 +42°C° 0 mm 3 m/S 749 mmHg 16%
    16:00 +41°C° 0 mm 4 m/S 749 mmHg 17%
    17:00 +40°C° 0 mm 5 m/S 749 mmHg 18%
    18:00 +37°C° 0 mm 5 m/S 750 mmHg 19%
    19:00 +35°C° 0 mm 5 m/S 750 mmHg 23%
    20:00 +32°C° 0 mm 5 m/S 751 mmHg 26%
    21:00 +29°C° 0 mm 4 m/S 751 mmHg 30%
    22:00 +28°C° 0 mm 4 m/S 751 mmHg 34%
    23:00 +26°C° 0 mm 3 m/S 751 mmHg 38%

    Morgen, 26 August, Montag

    Zeit Temperatur Niederschläge Wind Luftdruck Luftfeuchtigkeit
    00:00 +25°C° 0 mm 2 m/S 751 mmHg 42%
    01:00 +25°C° 0 mm 2 m/S 751 mmHg 44%
    02:00 +24°C° 0 mm 2 m/S 752 mmHg 46%
    03:00 +24°C° 0 mm 1 m/S 752 mmHg 48%
    04:00 +24°C° 0 mm 1 m/S 752 mmHg 49%
    05:00 +24°C° 0 mm 1 m/S 752 mmHg 51%
    06:00 +22°C° 0 mm 0 m/S 752 mmHg 52%
    07:00 +26°C° 0 mm 1 m/S 752 mmHg 44%
    08:00 +29°C° 0 mm 1 m/S 752 mmHg 36%
    09:00 +32°C° 0 mm 2 m/S 752 mmHg 27%
    10:00 +34°C° 0 mm 3 m/S 752 mmHg 23%
    11:00 +36°C° 0 mm 4 m/S 752 mmHg 19%
    12:00 +37°C° 0 mm 5 m/S 752 mmHg 14%
    13:00 +39°C° 0 mm 5 m/S 752 mmHg 14%
    14:00 +39°C° 0 mm 5 m/S 751 mmHg 14%
    15:00 +40°C° 0 mm 6 m/S 751 mmHg 14%
    16:00 +37°C° 0.1 mm 5 m/S 751 mmHg 16%
    17:00 +36°C° 0.1 mm 5 m/S 751 mmHg 18%
    18:00 +35°C° 0.1 mm 5 m/S 752 mmHg 20%
    19:00 +33°C° 0.1 mm 6 m/S 752 mmHg 26%
    20:00 +30°C° 0.1 mm 6 m/S 753 mmHg 33%
    21:00 +28°C° 0.1 mm 7 m/S 754 mmHg 39%
    22:00 +28°C° 0 mm 6 m/S 754 mmHg 39%
    23:00 +28°C° 0 mm 6 m/S 754 mmHg 38%

    übermorgen, 27 August, Dienstag

    Zeit Temperatur Niederschläge Wind Luftdruck Luftfeuchtigkeit
    00:00 +27°C° 0 mm 5 m/S 754 mmHg 38%
    01:00 +26°C° 0.1 mm 5 m/S 754 mmHg 41%
    02:00 +25°C° 0.1 mm 4 m/S 754 mmHg 45%
    03:00 +25°C° 0.1 mm 4 m/S 754 mmHg 49%
    04:00 +23°C° 0 mm 4 m/S 754 mmHg 51%
    05:00 +23°C° 0 mm 4 m/S 754 mmHg 53%
    06:00 +22°C° 0 mm 4 m/S 754 mmHg 55%
    07:00 +25°C° 0 mm 5 m/S 754 mmHg 48%
    08:00 +28°C° 0 mm 5 m/S 753 mmHg 41%
    09:00 +30°C° 0 mm 6 m/S 753 mmHg 34%
    10:00 +33°C° 0 mm 6 m/S 753 mmHg 31%
    11:00 +34°C° 0 mm 6 m/S 752 mmHg 27%
    12:00 +35°C° 0 mm 5 m/S 752 mmHg 24%
    13:00 +35°C° 0 mm 5 m/S 751 mmHg 24%
    14:00 +36°C° 0 mm 5 m/S 751 mmHg 23%
    15:00 +36°C° 0 mm 5 m/S 750 mmHg 23%
    16:00 +35°C° 0 mm 5 m/S 750 mmHg 25%
    17:00 +34°C° 0 mm 4 m/S 750 mmHg 27%
    18:00 +33°C° 0 mm 4 m/S 750 mmHg 29%
    19:00 +30°C° 0 mm 4 m/S 751 mmHg 36%
    20:00 +29°C° 0 mm 5 m/S 751 mmHg 42%
    21:00 +27°C° 0 mm 5 m/S 751 mmHg 49%
    22:00 +26°C° 0 mm 5 m/S 751 mmHg 54%
    23:00 +25°C° 0 mm 4 m/S 751 mmHg 58%

    28 August, Mittwoch

    Zeit Temperatur Niederschläge Wind Luftdruck Luftfeuchtigkeit
    00:00 +24°C° 0 mm 3 m/S 751 mmHg 62%
    01:00 +22°C° 0 mm 3 m/S 751 mmHg 65%
    02:00 +23°C° 0 mm 2 m/S 751 mmHg 67%
    03:00 +21°C° 0 mm 2 m/S 751 mmHg 70%
    04:00 +22°C° 0 mm 1 m/S 751 mmHg 69%
    05:00 +23°C° 0 mm 1 m/S 751 mmHg 68%
    06:00 +21°C° 0 mm 0 m/S 751 mmHg 67%
    07:00 +23°C° 0 mm 0 m/S 751 mmHg 59%
    08:00 +27°C° 0 mm 1 m/S 751 mmHg 51%
    09:00 +29°C° 0 mm 1 m/S 751 mmHg 43%
    10:00 +31°C° 0 mm 1 m/S 751 mmHg 39%
    11:00 +32°C° 0 mm 1 m/S 750 mmHg 34%
    12:00 +35°C° 0 mm 2 m/S 750 mmHg 29%
    13:00 +35°C° 0 mm 2 m/S 750 mmHg 28%
    14:00 +36°C° 0 mm 2 m/S 749 mmHg 26%
    15:00 +37°C° 0 mm 3 m/S 749 mmHg 24%
    16:00 +36°C° 0 mm 3 m/S 749 mmHg 25%
    17:00 +35°C° 0 mm 3 m/S 749 mmHg 26%
    18:00 +34°C° 0 mm 3 m/S 749 mmHg 27%
    19:00 +32°C° 0 mm 4 m/S 750 mmHg 34%
    20:00 +29°C° 0 mm 5 m/S 751 mmHg 42%
    21:00 +27°C° 0 mm 7 m/S 751 mmHg 49%
    22:00 +26°C° 0 mm 6 m/S 751 mmHg 54%
    23:00 +25°C° 0 mm 5 m/S 752 mmHg 58%

    29 August, Donnerstag

    Zeit Temperatur Niederschläge Wind Luftdruck Luftfeuchtigkeit
    00:00 +24°C° 0 mm 3 m/S 752 mmHg 62%
    01:00 +22°C° 0 mm 3 m/S 752 mmHg 64%
    02:00 +22°C° 0 mm 3 m/S 752 mmHg 65%
    03:00 +23°C° 0 mm 2 m/S 752 mmHg 66%
    04:00 +23°C° 0 mm 2 m/S 752 mmHg 67%
    05:00 +23°C° 0 mm 2 m/S 752 mmHg 68%
    06:00 +23°C° 0 mm 2 m/S 752 mmHg 69%
    07:00 +25°C° 0 mm 2 m/S 752 mmHg 59%
    08:00 +27°C° 0 mm 2 m/S 752 mmHg 50%
    09:00 +29°C° 0 mm 2 m/S 751 mmHg 40%
    10:00 +31°C° 0 mm 3 m/S 751 mmHg 36%
    11:00 +34°C° 0 mm 4 m/S 751 mmHg 31%
    12:00 +35°C° 0 mm 4 m/S 750 mmHg 26%
    13:00 +36°C° 0 mm 4 m/S 750 mmHg 25%
    14:00 +37°C° 0 mm 4 m/S 749 mmHg 23%
    15:00 +37°C° 0 mm 4 m/S 749 mmHg 22%
    16:00 +36°C° 0 mm 5 m/S 749 mmHg 23%
    17:00 +35°C° 0 mm 7 m/S 749 mmHg 25%
    18:00 +34°C° 0 mm 8 m/S 750 mmHg 26%
    19:00 +32°C° 0 mm 8 m/S 750 mmHg 34%
    20:00 +29°C° 0 mm 7 m/S 751 mmHg 43%
    21:00 +26°C° 0 mm 7 m/S 751 mmHg 51%
    22:00 +24°C° 0.3 mm 7 m/S 751 mmHg 58%
    23:00 +23°C° 0.3 mm 7 m/S 751 mmHg 66%

    30 August, Freitag

    Zeit Temperatur Niederschläge Wind Luftdruck Luftfeuchtigkeit
    00:00 +22°C° 0.3 mm 7 m/S 752 mmHg 73%
    01:00 +22°C° 0 mm 7 m/S 751 mmHg 75%
    02:00 +21°C° 0 mm 6 m/S 751 mmHg 77%
    03:00 +21°C° 0 mm 6 m/S 751 mmHg 79%
    04:00 +21°C° 0.1 mm 5 m/S 751 mmHg 79%
    05:00 +21°C° 0.1 mm 5 m/S 751 mmHg 78%
    06:00 +21°C° 0.1 mm 5 m/S 752 mmHg 78%
    07:00 +21°C° 0.1 mm 5 m/S 751 mmHg 76%
    08:00 +21°C° 0.1 mm 5 m/S 751 mmHg 75%
    09:00 +22°C° 0.1 mm 4 m/S 751 mmHg 73%
    10:00 +22°C° 0.1 mm 4 m/S 751 mmHg 70%
    11:00 +23°C° 0.1 mm 4 m/S 751 mmHg 67%
    12:00 +23°C° 0.1 mm 4 m/S 751 mmHg 65%
    13:00 +25°C° 0.2 mm 4 m/S 751 mmHg 62%
    14:00 +25°C° 0.2 mm 5 m/S 751 mmHg 60%
    15:00 +26°C° 0.2 mm 6 m/S 751 mmHg 58%
    16:00 +25°C° 0.3 mm 5 m/S 751 mmHg 61%
    17:00 +23°C° 0.3 mm 5 m/S 751 mmHg 65%
    18:00 +22°C° 0.3 mm 5 m/S 751 mmHg 69%
    19:00 +22°C° 0.4 mm 5 m/S 751 mmHg 73%
    20:00 +21°C° 0.4 mm 5 m/S 751 mmHg 76%
    21:00 +21°C° 0.4 mm 5 m/S 752 mmHg 80%
    22:00 +20°C° 0.1 mm 5 m/S 752 mmHg 80%
    23:00 +20°C° 0.1 mm 4 m/S 751 mmHg 80%
    Mehr zeigen